Regional Weather Roundup
Issued by NWS

Home | Current Version | Previous Version | Graphics & Text | Print | Product List | Glossary On
Versions: 1 2 3 4 5 6 7 8 9 10 11 12 13 14 15 16 17 18 19 20 21 22 23 24 25 26 27 28 29 30 31 32 33 34 35 36 37 38 39 40 41 42 43 44 45 46 47 48 49 50
000
ASUS43 KMPX 042010
RWRMN
WEATHER ROUNDUP FOR MINNESOTA
NATIONAL WEATHER SERVICE TWIN CITIES/CHANHASSEN MN
200 PM CST WED MAR 04 2015


NOTE: "FAIR" INDICATES FEW OR NO CLOUDS BELOW 12,000 FEET WITH NO
SIGNIFICANT WEATHER AND/OR OBSTRUCTIONS TO VISIBILITY. N/A MEANS
CURRENT SKY AND/OR WEATHER CONDITIONS ARE NOT AVAILABLE.

MNZ060>063-068>070-042100-
   Twin Cities Metro

CITY           SKY/WX    TMP DP  RH WIND       PRES   REMARKS
TWIN CITIES    MOSUNNY   12  -5  46 NW16G26   30.22  WCI  -5
ST PAUL        SUNNY     12  -6  44 NW17      30.24  WCI  -5
CRYSTAL        SUNNY     10  -7  46 W17G28    30.22  WCI  -8
LAKEVILLE      SUNNY      9   0  66 NW12G20   30.22F WCI  -6
EDEN PRAIRIE   MOSUNNY   11  -7  44 NW16G28   30.21  WCI  -6
SOUTH ST PAUL  SUNNY     12  -6  42 W13G28    30.22F WCI  -2
LAKE ELMO      FAIR      12  -4  48 W16       30.22F WCI  -4
$$
MNZ001>005-007-008-013>017-022>024-027-028-042100-
   Northwest Minnesota

CITY           SKY/WX    TMP DP  RH WIND       PRES   REMARKS
BEMIDJI        PTSUNNY   -2 -12  62 NW17      30.19S WCI -24
HALLOCK        CLOUDY    -2  -9  71 NW17G24   30.30S WCI -24
ROSEAU         SUNNY      0  -9  65 W15       30.23R HAZE    WCI -20
WARROAD        MOSUNNY    0 -11  60 W9        30.20S WCI -16
THIEF RVR FALL CLOUDY    -2  -9  71 W17       30.26R WCI -24
CROOKSTON      SUNNY      1  -8  66 NW16G23   30.32R HAZE    WCI -18
FOSSTON        MOSUNNY    1 -11  55 W16       30.24S WCI -18
DETROIT LAKES  PTSUNNY    1  -8  66 NW15G21   30.25S HAZE    WCI -18
MOORHEAD       SUNNY      3  -8  60 NW16      30.32S WCI -16
PARK RAPIDS    CLOUDY     0 -12  57 NW17      30.18  WCI -21
MAHNOMEN       CLOUDY     0  -7  72 NW14G21   30.25S HAZE    WCI -19
$$
MNZ006-009>011-018-025>026-042100-
   North Central Minnesota

CITY           SKY/WX    TMP DP  RH WIND       PRES   REMARKS
BAUDETTE       MOSUNNY   -1 -13  56 NW13      30.17  WCI -19
FLAG ISLAND    SUNNY      0 -13  55 NW14      30.17S WCI -19
INTL FALLS     PTSUNNY    0 -14  51 NW14      30.14  WCI -19
WASKISH        PTSUNNY    1  -9  60 W12       30.18S WCI -15
BIG FORK       MOSUNNY    1 -15  46 W7G21     30.14S WCI -11
LONGVILLE      MOSUNNY    1 -17  42 W12G17    30.18S WCI -15
GRAND RAPIDS   CLOUDY     0 -15  50 NW14G23   30.13S WCI -19
CRANE LAKE     PTSUNNY    0 -17  46 W6        30.14S WCI -12
ORR            MOSUNNY    0 -17  46 NW12G23   30.09R WCI -18
COOK           PTSUNNY    0 -13  55 W13       30.11S WCI -18
WALKER         MOCLDY    -1 -15  52 W10G21    30.18S WCI -17
$$
MNZ012-019>021-037-042100-
   Northeast Minnesota

CITY           SKY/WX    TMP DP  RH WIND       PRES   REMARKS
DULUTH         PTSUNNY    2 -13  49 NW17G28   30.10R WCI -18
ELY            MOSUNNY    0 -17  46 NW15G21   30.07R WCI -20
HIBBING        CLOUDY     1 -16  44 W12G22    30.11  WCI -16
EVELETH        MOSUNNY    0 -13  55 W12G23    30.12R WCI -18
DULUTH HARBOR  MOSUNNY    7  -9  47 W18G25    30.19S WCI -12
TWO HARBORS    PTSUNNY    7 -11  43 W10G22    30.09S WCI  -8
SILVER BAY     MOSUNNY    7 -17  33 NW10G18   30.08R WCI  -8
GRAND MARAIS     N/A      7 -12  41 NW9G21    30.11  WCI  -7
G MARAIS ARPRT MOSUNNY    0 -18  42 W10G21    29.95R WCI -17
$$
MNZ029>031-032-039>041-046>048-054>057-064-042100-
   West Central Minnesota

CITY           SKY/WX    TMP DP  RH WIND       PRES   REMARKS
FERGUS FALLS   MOSUNNY    0 -11  60 N15G23    30.33S WCI -20
WHEATON        MOSUNNY    1  -8  66 NW15      30.35S WCI -18
MORRIS         MOSUNNY    3  -8  60 NW21G28   30.28F HAZE    WCI -18
ALEXANDRIA     PTSUNNY    1 -11  57 NW17      30.23S WCI -19
ELBOW LAKE     CLOUDY     1  -7  68 NW18G26   30.28S HAZE    WCI -19
WADENA         MOSUNNY    0 -11  60 NW12      30.22S HAZE    WCI -18
GLENWOOD       PTSUNNY    1  -6  71 NW20      30.24S HAZE    WCI -20
APPLETON       SUNNY      7  -8  51 NW18G25   30.32S WCI -12
BENSON         CLOUDY     5  -8  56 N20G26    30.29S WCI -15
ORTONVILLE     PTSUNNY    3  -8  60 NW17G23   30.31F HAZE    WCI -17
MADISON        MOSUNNY    7  -6  56 NW20      30.32S WCI -13
WILLMAR        PTSUNNY    7  -6  56 NW24      30.27S HAZE    WCI -15
$$
MNZ033>034-036-042>043-049>051-058-059-042100-
   Central Minnesota

CITY           SKY/WX    TMP DP  RH WIND       PRES   REMARKS
ST CLOUD       PTSUNNY    5  -8  55 NW16      30.23  WCI -14
SAUK CENTRE    CLOUDY     3  -9  56 NW20      30.24S WCI -18
PAYNESVILLE    CLOUDY     1  -9  61 W16G23    30.25F WCI -18
AITKIN         PTSUNNY    7 -15  36 W13G18    30.17S WCI  -9
PINE RIVER     SUNNY      1 -15  46 NW12      30.21F WCI -15
BRAINERD       CLOUDY     3 -10  54 NW13      30.20  WCI -14
STAPLES        PTSUNNY    0 -13  55 NW14      30.21S WCI -19
LONG PRAIRIE   FAIR       3  -9  55 W17       30.22F WCI -17
LITTLE FALLS   SUNNY      5 -13  43 W10G16    30.23S WCI -10
LITCHFIELD     SUNNY      9  -6  52 W16       30.24F WCI  -9
BUFFALO        MOSUNNY    9  -6  51 W21       30.25F WCI -11
MAPLE LAKE     MOSUNNY    9  -5  54 W17G26    30.24F WCI -10
$$
MNZ037-044-045-052-053-042100-
   East Central Minnesota

CITY           SKY/WX    TMP DP  RH WIND       PRES   REMARKS
PRINCETON      MOSUNNY    9  -8  47 W17       30.21F WCI -10
MORA           MOSUNNY    9 -11  40 W12G21    30.20F WCI  -6
CAMBRIDGE      SUNNY      9  -8  47 W14G25    30.20S WCI  -8
RUSH CITY      CLOUDY    10  -9  40 W12G21    30.20F WCI  -4
MOOSE LAKE     CLOUDY     5 -11  47 NW14G21   30.16S WCI -12
HINCKLEY       CLOUDY     9  -9  43 W16       30.18F WCI  -9
CLOQUET        PTSUNNY    1 -17  42 W18G25    30.12S WCI -19
MCGREGOR       PTSUNNY    3 -13  47 NW14      30.17F WCI -15
$$
MNZ071>073-080-081-089-090-097-098-042100-
   Southwest Minnesota

CITY           SKY/WX    TMP DP  RH WIND       PRES   REMARKS
MONTEVIDEO     MOSUNNY    9  -4  56 NW15G28   30.32R WCI  -8
GRANITE FALLS  PTSUNNY    9  -3  60 W23       30.32R WCI -12
CANBY          CLOUDY     7  -6  56 NW16G23   30.32R WCI -11
MARSHALL       PTSUNNY    9  -6  52 NW20      30.29F WCI -11
REDWOOD FALLS  CLOUDY    11  -4  51 NW17G23   30.27F WCI  -6
OLIVIA         MOSUNNY    9   0  66 NW17G30   30.27S WCI -10
PIPESTONE      MOSUNNY    9   0  66 N16G29    30.24S HAZE    WCI  -9
WINDOM         PTSUNNY   10   1  67 NW20      30.24S HAZE    WCI  -8
WORTHINGTON    CLOUDY    10   0  61 NW21      30.25R WCI  -9
JACKSON        PTSUNNY   14   3  62 NW20      30.23R WCI  -3
TRACY          CLOUDY    11   1  64 NW15G22   30.26F WCI  -6
SLAYTON        PTSUNNY    9  -3  58 NW18      30.23S WCI  -9
$$
MNZ065>067-074>077-082>085-091>093-042100-
   South Central Minnesota

CITY           SKY/WX    TMP DP  RH WIND       PRES   REMARKS
MANKATO        PTSUNNY   10   0  61 NW15      30.24F WCI  -6
NEW ULM        PTSUNNY   10  -2  56 NW20G25   30.25F WCI  -8
ST JAMES       LGT SNOW  14   9  79 NW20      30.27S WCI  -3
FAIRMONT       CLOUDY    12   1  62 NW18      30.22S WCI  -5
GLENCOE        MOSUNNY   11  -2  56 W20       30.24F WCI  -7
FARIBAULT      MOSUNNY   10   0  61 W16G23    30.23S WCI  -7
OWATONNA       MOSUNNY   12   0  57 NW18      30.22S WCI  -5
WASECA         PTSUNNY   12   1  62 NW17      30.24F WCI  -5
ALBERT LEA     MOSUNNY   12   1  62 NW9G16    30.21S WCI   0
$$
MNZ078>079-086>088-094>096-042100-
   Southeast Minnesota

CITY           SKY/WX    TMP DP  RH WIND       PRES   REMARKS
ROCHESTER      PTSUNNY   10   0  63 NW18      30.18  WCI  -8
RED WING       SUNNY     12  -6  44 W9G17     30.22S WCI   0
STANTON        MOSUNNY   12  -2  54 NW16      30.22F WCI  -5
DODGE CENTER   MOSUNNY   10   0  61 W14G24    30.18F WCI  -5
WINONA         SUNNY     14   0  52 NW15G23   30.22F WCI  -1
AUSTIN         SUNNY     10   0  61 NW16G23   30.20S WCI  -7
PRESTON        SUNNY     10  -2  60 NW15      30.19S WCI  -7
$$
ABBREVIATIONS USED IN REMARKS
   TC - TEMPERATURES IN CELSIUS
  WCI - WIND CHILL INDEX
   HX - HEAT INDEX
  VSB - VISIBILITY
$$



USA.gov is the U.S. government's official web portal to all federal, state and local government web resources and services.